cover

 

Get it on iTunes StoreListen on Apple Music

Flower Power

#Trackname / Key / BPM / Publish dateArtists, Remixers / Label
1 123 bpm, 7B / F major, 2019-01-04, Minimal,  0  23
2 122 bpm, 7A / D minor, 2019-01-04, Minimal,  0  23
3 124 bpm, 10A / B minor, 2019-01-04, Minimal,  0  23
4 120 bpm, 8A / A minor, 2019-01-04, Minimal,  0  23
5 125 bpm, 7A / D minor, 2019-01-04, Minimal,  0  23
6 126 bpm, 11B / A major, 2019-01-04, Minimal,  0  23
7 122 bpm, 8B / C major, 2019-01-04, Minimal,  0  23
8 124 bpm, 5A / C minor, 2019-01-04, Minimal,  0  23
9 123 bpm, 10A / B minor, 2019-01-04, Minimal,  0  23
10 126 bpm, 8A / A minor, 2019-01-04, Minimal,  0  23
11 121 bpm, 11B / A major, 2019-01-04, Minimal,  0  23
12 126 bpm, 8A / A minor, 2019-01-04, Minimal,  0  23
13 124 bpm, 8A / A minor, 2019-01-04, Minimal,  0  23
14 122 bpm, 10B / D major, 2019-01-04, Minimal,  0  23
15 120 bpm, 4A / F minor, 2019-01-04, Minimal,  0  23
16 127 bpm, 6B / Bb major, 2019-01-04, Minimal,  0  23
17 122 bpm, 8A / A minor, 2019-01-04, Minimal,  0  23
18 122 bpm, 9B / G major, 2019-01-04, Minimal,  0  23
19 125 bpm, 7B / F major, 2019-01-04, Minimal,  0  23
20 124 bpm, 9B / G major, 2019-01-04, Minimal,  0  23
21 123 bpm, 8A / A minor, 2019-01-04, Minimal,  0  23
22 122 bpm, 8A / A minor, 2019-01-04, Minimal,  0  23
23 123 bpm, 8A / A minor, 2019-01-04, Minimal,  0  23
24 125 bpm, 8A / A minor, 2018-12-28, Techno,  0  24
25 124 bpm, 8A / A minor, 2018-12-28, Electro House,  0  24
26 124 bpm, 5A / C minor, 2018-12-28, Minimal,  1  24
27 118 bpm, 8B / C major, 2018-12-28, Techno,  0  24
28 126 bpm, 6B / Bb major, 2018-12-28, Techno,  0  24
29 122 bpm, 10A / B minor, 2018-12-28, Techno,  0  24
30 121 bpm, 9A / E minor, 2018-12-28, Techno,  0  24
31 120 bpm, 11A / F# minor, 2018-12-28, Techno,  0  24
32 125 bpm, 8A / A minor, 2018-12-28, Melodic House & Techno,  1  24
33 124 bpm, 11A / F# minor, 2018-12-28, Techno,  0  24
34 124 bpm, 8B / C major, 2018-12-28, Melodic House & Techno,  0  24
35 120 bpm, 8A / A minor, 2018-12-28, Techno,  0  24
36 122 bpm, 2A / Eb minor, 2018-12-28, Melodic House & Techno,  0  24
37 125 bpm, 4A / F minor, 2018-12-28, Techno,  0  24
38 125 bpm, 5A / C minor, 2018-12-28, Techno,  0  24
39 123 bpm, 11B / A major, 2018-12-28, Techno,  0  24
40 118 bpm, 3A / Bb minor, 2018-12-28, Techno,  0  24
41 125 bpm, 11B / A major, 2018-12-28, Techno,  0  24
42 120 bpm, 8A / A minor, 2018-12-28, Melodic House & Techno,  0  24
43 125 bpm, 4B / Ab major, 2018-12-28, Melodic House & Techno,  0  24
44 122 bpm, 8A / A minor, 2018-12-28, Melodic House & Techno,  0  24
45 125 bpm, 10A / B minor, 2018-12-28, Melodic House & Techno,  0  24
46 125 bpm, 3B / Db major, 2018-12-28, Melodic House & Techno,  0  24
47 123 bpm, 5A / C minor, 2018-12-28, Melodic House & Techno,  0  24
48 125 bpm, 3A / Bb minor, 2018-12-28, Techno,  0  25
49 125 bpm, 8A / A minor, 2018-12-28, Minimal,  0  25
50 126 bpm, 4A / F minor, 2018-12-28, Progressive House,  0  25
51 123 bpm, 8A / A minor, 2018-12-28, Techno,  0  25
52 125 bpm, 11B / A major, 2018-12-28, Tech House,  0  25
53 126 bpm, 8A / A minor, 2018-12-28, Tech House,  0  25
54 126 bpm, 11B / A major, 2018-12-28, Tech House,  1  25
55 128 bpm, 8A / A minor, 2018-12-28, Tech House,  0  25
56 126 bpm, 3B / Db major, 2018-12-28, Tech House,  0  25
57 125 bpm, 5A / C minor, 2018-12-28, Tech House,  0  25
58 123 bpm, 9A / E minor, 2018-12-28, Tech House,  0  25
59 120 bpm, 3A / Bb minor, 2018-12-28, Tech House,  0  25
60 126 bpm, 12B / E major, 2018-12-28, Tech House,  0  25
61 120 bpm, 6A / G minor, 2018-12-28, Deep House,  0  25
62 126 bpm, 10A / B minor, 2018-12-28, Tech House,  0  25
63 126 bpm, 10B / D major, 2018-12-28, Minimal,  0  25
64 127 bpm, 11B / A major, 2018-12-28, Techno,  0  25
65 127 bpm, 12A / Db minor, 2018-12-28, Tech House,  0  25
66 120 bpm, 8B / C major, 2018-12-28, Tech House,  0  25
67 125 bpm, 8A / A minor, 2018-12-28, Tech House,  1  25
68 125 bpm, 7A / D minor, 2018-12-28, Techno,  0  25
69 125 bpm, 8A / A minor, 2018-12-28, Tech House,  0  25
70 126 bpm, 8A / A minor, 2018-12-28, Tech House,  0  25
71 129 bpm, 2A / Eb minor, 2018-12-28, Tech House,  0  25
72 125 bpm, 8B / C major, 2018-12-28, Techno,  0  25
73 122 bpm, 11B / A major, 2018-12-21, Indie Dance / Nu Disco,  0  23
74 124 bpm, 7A / D minor, 2018-12-21, Tech House,  0  23
75 124 bpm, 8A / A minor, 2018-12-21, Tech House,  0  23
76 125 bpm, 7A / D minor, 2018-12-21, House,  0  23
77 124 bpm, 8A / A minor, 2018-12-21, Tech House,  0  23
78 126 bpm, 8A / A minor, 2018-12-21, Techno,  0  23
79 128 bpm, 11B / A major, 2018-12-21, Tech House,  0  23
80 124 bpm, 12A / Db minor, 2018-12-21, Electronica,  0  23
81 120 bpm, 2A / Eb minor, 2018-12-21, Tech House,  1  23
82 124 bpm, 3A / Bb minor, 2018-12-21, Deep House,  0  23
83 122 bpm, 10B / D major, 2018-12-21, Progressive House,  0  23
84 125 bpm, 11B / A major, 2018-12-21, Tech House,  0  23
85 126 bpm, 6A / G minor, 2018-12-21, Tech House,  0  23
86 123 bpm, 11A / F# minor, 2018-12-21, Deep House,  0  23
87 118 bpm, 8A / A minor, 2018-12-21, Deep House,  0  23
88 111 bpm, 7A / D minor, 2018-12-21, Electronica,  0  23
89 122 bpm, 11A / F# minor, 2018-12-21, Deep House,  0  23
90 122 bpm, 9A / E minor, 2018-12-21, Progressive House,  0  23
91 124 bpm, 8A / A minor, 2018-12-21, Melodic House & Techno,  0  23
92 118 bpm, 8A / A minor, 2018-12-21, Progressive House,  0  23
93 124 bpm, 6A / G minor, 2018-12-21, Deep House,  0  23
94 123 bpm, 2B / F# major, 2018-12-21, Melodic House & Techno,  0  23
95 120 bpm, 7B / F major, 2018-12-21, Melodic House & Techno,  0  23
96 123 bpm, 11A / F# minor, 2018-12-14, Tech House,  0  25
97 129 bpm, 6A / G minor, 2018-12-14, Techno,  0  25
98 120 bpm, 9A / E minor, 2018-12-14, Tech House,  0  25
99 164 bpm, 7A / D minor, 2018-12-14, Techno,  0  25
100 137 bpm, 1B / B major, 2018-12-14, Electronica,  0  25
×

Sign in

Sign in to access your personalized pages, follow artists and labels you love, and create playlists fromyour favorite tracks.

Please wait...